Flag for Japan Weather past 2 weeks in Nagoya, Japan

Now
72 °F

Passing clouds.


Feels Like: 72 °F
Forecast: 61 / 88 °F
Wind: 8 mph from Southwest

Location: Nagoya Airport

Current Time: May 30, 2015 at 12:12:56 AM

Latest Report: May 29, 2015 at 11:30 PM


Visibility: N/A

Pressure: 29.62 "Hg

Humidity: 78%

Dew point: 64 °F

Location of NagoyaLocation

Historic Weather in Nagoya — Graph

°F

Nagoya temperature yesterday

Maximum temperature yesterday: 77 °F (at 5:00 PM)
Minimum temperature yesterday: 68 °F (at 12:00 AM)
Average temperature yesterday: 72 °F

Past Weeks' High & Low Weather Summary

 TemperatureHumidityPressure
High82 °F (May 26, 2:30 PM)100% (May 16, 4:00 AM)30.01 "Hg (May 16, 4:00 AM)
Low55 °F (May 21, 1:30 AM)32% (May 17, 2:30 PM)29.50 "Hg (May 20, 2:00 PM)
Average69 °F71%29.78 "Hg
* Reported May 14 11:00 PM — May 29 11:00 PM, Nagoya, Weather by CustomWeather, © 2015

Note: Actual official high and low records may vary slightly from our data, if they occured in-between our weather recording intervals... More about our weather records

Advertising

Nagoya weather history for previous 24 hours

 ConditionsComfort  
Time TempWeatherWind HumidityBarometerVisibility
11:00 PM
Fri, May 29
72 °FPassing clouds.8 mph83%29.62 "HgN/A
10:30 PM72 °FPassing clouds.9 mph83%29.65 "HgN/A
10:00 PM73 °FPassing clouds.10 mph78%29.65 "HgN/A
9:30 PM72 °FPassing clouds.9 mph78%29.65 "HgN/A
9:00 PM72 °FPassing clouds.8 mph73%29.65 "HgN/A
8:30 PM73 °FPassing clouds.7 mph65%29.65 "HgN/A
8:00 PM73 °FPassing clouds.6 mph69%29.65 "HgN/A
7:30 PM75 °FPassing clouds.7 mph61%29.65 "HgN/A
7:00 PM73 °FPassing clouds.7 mph74%29.65 "HgN/A
6:30 PM73 °FScattered clouds.6 mph74%29.65 "HgN/A
6:00 PM73 °FScattered clouds.7 mph78%29.62 "HgN/A
5:30 PM75 °FPassing clouds.7 mph69%29.62 "HgN/A
5:00 PM77 °FPassing clouds.12 mph54%29.62 "HgN/A
4:30 PM75 °FScattered clouds.9 mph69%29.62 "HgN/A
4:00 PM75 °FScattered clouds.9 mph69%29.62 "HgN/A
3:30 PM75 °FScattered clouds.7 mph65%29.62 "HgN/A
3:00 PM75 °FPartly sunny.10 mph65%29.65 "HgN/A
2:30 PM75 °FPartly sunny.12 mph69%29.65 "HgN/A
2:00 PM73 °FLight rain. Broken clouds.9 mph74%29.68 "HgN/A
1:30 PM73 °FLight rain. Broken clouds.8 mph69%29.68 "HgN/A
1:00 PM73 °FLight rain. Partly sunny.8 mph69%29.71 "HgN/A
12:30 PM72 °FScattered showers. Broken clouds.8 mph73%29.74 "HgN/A
12:00 PM72 °FBroken clouds.8 mph73%29.74 "HgN/A
11:30 AM73 °FPartly sunny.6 mph69%29.74 "HgN/A
11:00 AM72 °FPartly sunny.7 mph73%29.74 "HgN/A
10:30 AM72 °FPartly sunny.7 mph69%29.77 "HgN/A
10:00 AM72 °FBroken clouds.6 mph73%29.77 "HgN/A
9:30 AM72 °FBroken clouds.7 mph73%29.77 "HgN/A
9:00 AM72 °FPartly sunny.7 mph73%29.77 "HgN/A
8:30 AM72 °FPartly sunny.6 mph78%29.80 "HgN/A
8:00 AM72 °FPartly sunny.5 mph78%29.80 "HgN/A
7:30 AM70 °FBroken clouds.7 mph83%29.80 "HgN/A
7:00 AM70 °FBroken clouds.8 mph83%29.80 "HgN/A
6:30 AM70 °FPartly sunny.8 mph83%29.80 "HgN/A
6:00 AM68 °FPartly sunny.7 mph88%29.80 "HgN/A
5:30 AM70 °FPartly sunny.6 mph83%29.83 "HgN/A
5:00 AM68 °FPartly sunny.5 mph88%29.83 "HgN/A
4:30 AM68 °FPassing clouds.2 mph88%29.83 "HgN/A
4:00 AM68 °FPassing clouds.3 mph83%29.83 "HgN/A
3:30 AM68 °FPassing clouds.3 mph83%29.83 "HgN/A
3:00 AM68 °FPartly cloudy.5 mph83%29.83 "HgN/A
2:30 AM68 °FPartly cloudy.6 mph83%29.83 "HgN/A
2:00 AM68 °FPartly cloudy.7 mph83%29.83 "HgN/A
1:30 AM68 °FPartly cloudy.8 mph83%29.86 "HgN/A
1:00 AM68 °FPartly cloudy.7 mph83%29.86 "HgN/A
12:30 AM68 °FPassing clouds.6 mph88%29.86 "HgN/A
12:00 AM68 °FPassing clouds.6 mph88%29.89 "HgN/A
Weather by CustomWeather, © 2015

See weather overviewHow to use our weather pages